• In Kazakhstan
  • List of Countries
  • For 7 days
  • Water Temperature
  • Satellite Maps
  • Weather Map
  • News
  • Weather Widgets
  • user-avatar
    Login

    Hourly Weather Kuzmina

    Today, 21 April, Sunday

    Time Temperature Precipitation Wind Pressure Humidity
    00:00 +8°C° 0 mm 1 mps 727 mmHg 74%
    01:00 +6°C° 0 mm 0 mps 726 mmHg 77%
    02:00 +6°C° 0 mm 0 mps 726 mmHg 77%
    03:00 +7°C° 0 mm 1 mps 726 mmHg 78%
    04:00 +6°C° 0 mm 1 mps 726 mmHg 79%
    05:00 +8°C° 0 mm 1 mps 726 mmHg 75%
    06:00 +9°C° 0 mm 1 mps 726 mmHg 72%
    07:00 +9°C° 0 mm 2 mps 726 mmHg 68%
    08:00 +10°C° 0 mm 2 mps 726 mmHg 65%
    09:00 +11°C° 0 mm 3 mps 726 mmHg 61%
    10:00 +13°C° 0 mm 4 mps 725 mmHg 58%
    11:00 +13°C° 0.3 mm 4 mps 725 mmHg 57%
    12:00 +13°C° 0.3 mm 4 mps 725 mmHg 57%
    13:00 +14°C° 0.3 mm 4 mps 725 mmHg 57%
    14:00 +13°C° 0.5 mm 4 mps 724 mmHg 60%
    15:00 +13°C° 0.5 mm 4 mps 724 mmHg 63%
    16:00 +12°C° 0.5 mm 4 mps 724 mmHg 65%
    17:00 +11°C° 0.4 mm 3 mps 723 mmHg 72%
    18:00 +9°C° 0.4 mm 2 mps 723 mmHg 78%
    19:00 +8°C° 0.4 mm 1 mps 723 mmHg 85%
    20:00 +8°C° 0 mm 1 mps 723 mmHg 85%
    21:00 +7°C° 0 mm 1 mps 723 mmHg 86%
    22:00 +6°C° 0 mm 2 mps 723 mmHg 87%
    23:00 +6°C° 0.1 mm 2 mps 723 mmHg 86%

    Tomorrow, 22 April, Monday

    Time Temperature Precipitation Wind Pressure Humidity
    00:00 +6°C° 0.1 mm 2 mps 722 mmHg 85%
    01:00 +7°C° 0.1 mm 1 mps 722 mmHg 83%
    02:00 +7°C° 0.1 mm 1 mps 722 mmHg 83%
    03:00 +7°C° 0.1 mm 1 mps 722 mmHg 84%
    04:00 +7°C° 0.1 mm 1 mps 722 mmHg 84%
    05:00 +8°C° 0.2 mm 1 mps 722 mmHg 82%
    06:00 +9°C° 0.2 mm 1 mps 722 mmHg 80%
    07:00 +8°C° 0.2 mm 2 mps 722 mmHg 79%
    08:00 +10°C° 0.1 mm 3 mps 723 mmHg 72%
    09:00 +11°C° 0.1 mm 3 mps 723 mmHg 65%
    10:00 +13°C° 0.1 mm 4 mps 723 mmHg 59%
    11:00 +13°C° 0.2 mm 5 mps 723 mmHg 59%
    12:00 +13°C° 0.2 mm 5 mps 723 mmHg 60%
    13:00 +13°C° 0.2 mm 6 mps 723 mmHg 61%
    14:00 +13°C° 0 mm 6 mps 723 mmHg 61%
    15:00 +13°C° 0 mm 6 mps 723 mmHg 62%
    16:00 +13°C° 0 mm 6 mps 723 mmHg 62%
    17:00 +10°C° 0 mm 6 mps 723 mmHg 65%
    18:00 +8°C° 0 mm 6 mps 723 mmHg 67%
    19:00 +7°C° 0 mm 6 mps 723 mmHg 70%
    20:00 +6°C° 0 mm 5 mps 723 mmHg 70%
    21:00 +5°C° 0 mm 5 mps 723 mmHg 71%
    22:00 +5°C° 0 mm 4 mps 724 mmHg 72%
    23:00 +5°C° 0 mm 4 mps 723 mmHg 73%

    Day after tomorrow, 23 April, Tuesday

    Time Temperature Precipitation Wind Pressure Humidity
    00:00 +4°C° 0 mm 3 mps 723 mmHg 74%
    01:00 +4°C° 0 mm 3 mps 723 mmHg 75%
    02:00 +4°C° 0 mm 3 mps 723 mmHg 77%
    03:00 +4°C° 0 mm 3 mps 723 mmHg 78%
    04:00 +4°C° 0 mm 3 mps 723 mmHg 80%
    05:00 +5°C° 0 mm 3 mps 723 mmHg 77%
    06:00 +7°C° 0 mm 3 mps 723 mmHg 74%
    07:00 +7°C° 0 mm 4 mps 723 mmHg 72%
    08:00 +10°C° 0 mm 4 mps 724 mmHg 66%
    09:00 +11°C° 0 mm 4 mps 724 mmHg 60%
    10:00 +13°C° 0 mm 4 mps 724 mmHg 54%
    11:00 +14°C° 0 mm 4 mps 724 mmHg 55%
    12:00 +14°C° 0 mm 4 mps 724 mmHg 56%
    13:00 +15°C° 0 mm 4 mps 724 mmHg 56%
    14:00 +14°C° 0.1 mm 4 mps 724 mmHg 58%
    15:00 +14°C° 0.1 mm 4 mps 723 mmHg 59%
    16:00 +14°C° 0.1 mm 4 mps 723 mmHg 60%
    17:00 +13°C° 0 mm 3 mps 723 mmHg 63%
    18:00 +11°C° 0 mm 3 mps 723 mmHg 66%
    19:00 +10°C° 0 mm 3 mps 723 mmHg 69%
    20:00 +9°C° 0 mm 3 mps 723 mmHg 71%
    21:00 +8°C° 0 mm 3 mps 723 mmHg 74%
    22:00 +7°C° 0 mm 2 mps 723 mmHg 77%
    23:00 +7°C° 0 mm 2 mps 723 mmHg 76%

    24 April, Wednesday

    Time Temperature Precipitation Wind Pressure Humidity
    00:00 +7°C° 0 mm 3 mps 723 mmHg 76%
    01:00 +7°C° 0 mm 3 mps 723 mmHg 75%
    02:00 +7°C° 0.4 mm 3 mps 723 mmHg 79%
    03:00 +7°C° 0.4 mm 3 mps 723 mmHg 84%
    04:00 +7°C° 0.4 mm 3 mps 723 mmHg 88%
    05:00 +7°C° 0 mm 4 mps 723 mmHg 85%
    06:00 +8°C° 0 mm 4 mps 724 mmHg 83%
    07:00 +9°C° 0 mm 5 mps 724 mmHg 80%
    08:00 +12°C° 0 mm 5 mps 724 mmHg 73%
    09:00 +14°C° 0 mm 5 mps 725 mmHg 66%
    10:00 +16°C° 0 mm 5 mps 725 mmHg 59%
    11:00 +17°C° 0 mm 5 mps 725 mmHg 57%
    12:00 +17°C° 0 mm 5 mps 725 mmHg 56%
    13:00 +19°C° 0 mm 5 mps 725 mmHg 54%
    14:00 +19°C° 0.1 mm 5 mps 725 mmHg 56%
    15:00 +19°C° 0.1 mm 4 mps 724 mmHg 58%
    16:00 +19°C° 0.1 mm 4 mps 724 mmHg 61%
    17:00 +17°C° 0.2 mm 3 mps 724 mmHg 68%
    18:00 +15°C° 0.2 mm 2 mps 724 mmHg 75%
    19:00 +14°C° 0.2 mm 2 mps 724 mmHg 82%
    20:00 +13°C° 0 mm 2 mps 724 mmHg 84%
    21:00 +13°C° 0 mm 2 mps 724 mmHg 87%
    22:00 +12°C° 0 mm 2 mps 724 mmHg 89%
    23:00 +13°C° 0.2 mm 2 mps 724 mmHg 88%

    25 April, Thursday

    Time Temperature Precipitation Wind Pressure Humidity
    00:00 +12°C° 0.2 mm 3 mps 724 mmHg 87%
    01:00 +12°C° 0.2 mm 3 mps 724 mmHg 85%
    02:00 +12°C° 0 mm 3 mps 724 mmHg 86%
    03:00 +11°C° 0 mm 3 mps 724 mmHg 86%
    04:00 +11°C° 0 mm 3 mps 724 mmHg 86%
    05:00 +12°C° 0 mm 3 mps 724 mmHg 82%
    06:00 +13°C° 0 mm 4 mps 725 mmHg 77%
    07:00 +14°C° 0 mm 5 mps 725 mmHg 72%
    08:00 +16°C° 0 mm 5 mps 725 mmHg 67%
    09:00 +17°C° 0 mm 6 mps 725 mmHg 61%
    10:00 +20°C° 0 mm 6 mps 725 mmHg 56%
    11:00 +21°C° 0 mm 6 mps 725 mmHg 54%
    12:00 +21°C° 0 mm 7 mps 725 mmHg 51%
    13:00 +22°C° 0 mm 7 mps 724 mmHg 49%
    14:00 +22°C° 0 mm 6 mps 724 mmHg 52%
    15:00 +22°C° 0 mm 6 mps 724 mmHg 55%
    16:00 +21°C° 0 mm 5 mps 723 mmHg 59%
    17:00 +20°C° 0 mm 5 mps 723 mmHg 65%
    18:00 +18°C° 0 mm 4 mps 723 mmHg 71%
    19:00 +17°C° 0 mm 3 mps 723 mmHg 77%
    20:00 +17°C° 0 mm 4 mps 723 mmHg 77%
    21:00 +15°C° 0 mm 4 mps 723 mmHg 77%
    22:00 +15°C° 0 mm 4 mps 724 mmHg 78%
    23:00 +15°C° 0 mm 4 mps 723 mmHg 80%

    26 April, Friday

    Time Temperature Precipitation Wind Pressure Humidity
    00:00 +16°C° 0 mm 3 mps 723 mmHg 82%
    01:00 +14°C° 0 mm 3 mps 723 mmHg 85%
    02:00 +14°C° 0 mm 3 mps 723 mmHg 85%
    03:00 +14°C° 0 mm 3 mps 723 mmHg 86%
    04:00 +13°C° 0 mm 3 mps 722 mmHg 86%
    05:00 +15°C° 0 mm 4 mps 722 mmHg 80%
    06:00 +16°C° 0 mm 5 mps 723 mmHg 75%
    07:00 +17°C° 0 mm 5 mps 723 mmHg 69%
    08:00 +19°C° 0 mm 5 mps 722 mmHg 65%
    09:00 +20°C° 0 mm 5 mps 722 mmHg 62%
    10:00 +21°C° 0 mm 5 mps 722 mmHg 58%
    11:00 +22°C° 0 mm 5 mps 722 mmHg 55%
    12:00 +23°C° 0 mm 5 mps 722 mmHg 52%
    13:00 +25°C° 0 mm 5 mps 722 mmHg 48%
    14:00 +23°C° 0 mm 5 mps 721 mmHg 51%
    15:00 +23°C° 0 mm 4 mps 721 mmHg 54%
    16:00 +23°C° 0 mm 4 mps 721 mmHg 57%
    17:00 +21°C° 0 mm 3 mps 721 mmHg 64%
    18:00 +19°C° 0 mm 3 mps 720 mmHg 71%
    19:00 +18°C° 0 mm 2 mps 720 mmHg 78%
    20:00 +17°C° 0 mm 3 mps 720 mmHg 79%
    21:00 +17°C° 0 mm 3 mps 720 mmHg 80%
    22:00 +17°C° 0 mm 3 mps 720 mmHg 81%
    23:00 +16°C° 0.1 mm 3 mps 720 mmHg 82%
    Show more